TimeCDT,TemperatureF,Dew PointF,Humidity,Sea Level PressureIn,VisibilityMPH,Wind Direction,Wind SpeedMPH,Gust SpeedMPH,PrecipitationIn,Events,Conditions,WindDirDegrees,DateUTC
12:53 AM,79.0,71.1,77,30.06,10.0,SW,6.9,-,N/A,,Clear,220,2013-07-31 05:53:00
2:53 AM,77.0,73.0,88,30.06,10.0,Calm,Calm,-,N/A,,Clear,0,2013-07-31 07:53:00
3:53 AM,75.9,73.0,91,30.05,10.0,SSW,4.6,-,N/A,,Clear,210,2013-07-31 08:53:00
4:53 AM,75.9,73.0,91,30.05,10.0,Calm,Calm,-,N/A,,Clear,0,2013-07-31 09:53:00
5:53 AM,75.0,73.0,94,30.06,9.0,Calm,Calm,-,N/A,,Clear,0,2013-07-31 10:53:00
6:53 AM,75.0,73.9,96,30.07,7.0,Calm,Calm,-,N/A,,Clear,0,2013-07-31 11:53:00
7:53 AM,78.1,75.0,90,30.08,9.0,Calm,Calm,-,N/A,,Clear,0,2013-07-31 12:53:00
8:53 AM,81.0,75.0,82,30.09,9.0,WSW,6.9,-,0.00,,Partly Cloudy,240,2013-07-31 13:53:00
9:53 AM,82.9,75.0,77,30.09,9.0,WSW,8.1,-,N/A,,Clear,250,2013-07-31 14:53:00
10:53 AM,84.9,73.9,69,30.10,10.0,WSW,5.8,-,N/A,,Partly Cloudy,250,2013-07-31 15:53:00
11:53 AM,89.1,73.9,61,30.08,10.0,SW,6.9,-,N/A,,Clear,220,2013-07-31 16:53:00
12:53 PM,91.0,73.9,57,30.05,10.0,WSW,3.5,-,N/A,,Clear,240,2013-07-31 17:53:00
1:53 PM,93.0,71.1,49,30.03,10.0,Variable,3.5,-,N/A,,Clear,0,2013-07-31 18:53:00
2:53 PM,93.9,70.0,46,30.01,10.0,Calm,Calm,-,N/A,,Clear,0,2013-07-31 19:53:00
3:53 PM,95.0,68.0,41,29.99,10.0,Calm,Calm,-,N/A,,Clear,0,2013-07-31 20:53:00
4:53 PM,95.0,68.0,41,29.97,10.0,NE,3.5,-,N/A,,Clear,50,2013-07-31 21:53:00
5:53 PM,96.1,68.0,40,29.95,10.0,Calm,Calm,-,N/A,,Clear,0,2013-07-31 22:53:00
6:53 PM,93.9,70.0,46,29.94,10.0,NNE,3.5,-,N/A,,Clear,20,2013-07-31 23:53:00
7:53 PM,88.0,73.0,61,29.94,10.0,SSE,3.5,-,N/A,,Clear,150,2013-08-01 00:53:00
8:53 PM,82.9,73.9,74,29.96,10.0,Calm,Calm,-,N/A,,Clear,0,2013-08-01 01:53:00
9:53 PM,81.0,75.9,85,29.98,10.0,Calm,Calm,-,N/A,,Clear,0,2013-08-01 02:53:00
10:53 PM,80.1,75.0,85,29.99,10.0,Calm,Calm,-,N/A,,Clear,0,2013-08-01 03:53:00
11:53 PM,80.1,73.9,81,29.98,10.0,SSW,4.6,-,N/A,,Clear,210,2013-08-01 04:53:00